Windsor, CA

10:55 PM PST on February 13, 2016 (GMT -0800)
Sonoma County

Weather History for KSTS - May, 2013

Change the Weather History Date:

Saturday, May 25, 2013

  Actual Average Record
Temperature  
Mean Temperature 59 °F 62 °F  
Max Temperature 76 °F 76 °F 96 °F (2014)
Min Temperature 42 °F 48 °F 41 °F (2008)
Degree Days  
Heating Degree Days 6    
Month to date heating degree days 69  
Since 1 July heating degree days 2655  
Cooling Degree Days 0    
Month to date cooling degree days 29  
Year to date cooling degree days 47  
Growing Degree Days 8 (Base 50)    
Moisture  
Dew Point 43 °F    
Average Humidity 63    
Maximum Humidity 92    
Minimum Humidity 33    
Precipitation  
Precipitation 0.00 in 0.02 in 0.51 in (2010)
Month to date precipitation T 1.19  
Year to date precipitation 4.85 21.71  
Since 1 July precipitation 27.26  
Sea Level Pressure  
Sea Level Pressure 29.95 in    
Wind  
Wind Speed 5 mph (SSE)    
Max Wind Speed 17 mph    
Max Gust Speed 24 mph    
Visibility 9 miles    
Events      
T = Trace of Precipitation, MM = Missing Value Source: NWS Daily Summary

Daily Weather History Graph

Daily Weather History Graph

Search for Another Location

Airport or City:

Trip Planner

Search our weather history database for the weather conditions in past years. The results will help you decide how hot, cold, wet, or windy it might be!

Date:

Astronomy

May. 25, 2013 Rise Set
Actual Time 5:52 AM PDT 8:24 PM PDT
Civil Twilight 5:21 AM PDT 8:55 PM PDT
Nautical Twilight 4:43 AM PDT 9:33 PM PDT
Astronomical Twilight 4:01 AM PDT 10:16 PM PDT
Moon 9:18 PM PDT (5/25) 6:24 AM PDT (5/25)
Length of Visible Light 15h 34m
Length of Day
14h 32m
Waxing Gibbous, 99% of the Moon is Illuminated
May 25
Waxing Gibbous
May 31
Last Quarter
Jun 8
New
Jun 16
First Quarter
Jun 23
Full

Hourly Weather History & Observations

Time (PDT) Temp. Dew Point Humidity Pressure Visibility Wind Dir Wind Speed Gust Speed Precip Events Conditions
12:53 AM 46.9 °F 41.0 °F 80% 29.94 in 8.0 mi Calm Calm - N/A   Clear
1:53 AM 46.9 °F 42.1 °F 83% 29.94 in 8.0 mi Calm Calm - N/A   Clear
2:53 AM 46.0 °F 41.0 °F 83% 29.93 in 8.0 mi Calm Calm - N/A   Clear
3:53 AM 44.1 °F 39.9 °F 85% 29.93 in 8.0 mi Calm Calm - N/A   Clear
4:53 AM 44.1 °F 39.9 °F 85% 29.94 in 8.0 mi Calm Calm - N/A   Clear
5:53 AM 42.1 °F 39.9 °F 92% 29.94 in 6.0 mi Calm Calm - N/A   Clear
6:53 AM 45.0 °F 42.1 °F 90% 29.96 in 6.0 mi Calm Calm - N/A   Partly Cloudy
7:53 AM 48.9 °F 43.0 °F 80% 29.97 in 7.0 mi Calm Calm - N/A   Partly Cloudy
8:53 AM 55.0 °F 43.0 °F 64% 29.97 in 9.0 mi Calm Calm - N/A   Scattered Clouds
9:53 AM 60.1 °F 42.1 °F 51% 29.97 in 10.0 mi Calm Calm - N/A   Partly Cloudy
10:53 AM 63.0 °F 41.0 °F 45% 29.96 in 10.0 mi Calm Calm - N/A   Clear
11:53 AM 68.0 °F 39.9 °F 36% 29.96 in 10.0 mi Variable 3.5 mph - N/A   Clear
12:53 PM 71.1 °F 41.0 °F 34% 29.96 in 10.0 mi Calm Calm - N/A   Clear
1:53 PM 73.0 °F 45.0 °F 37% 29.95 in 10.0 mi SSE 13.8 mph 17.3 mph N/A   Scattered Clouds
2:53 PM 73.9 °F 45.0 °F 35% 29.94 in 10.0 mi South 10.4 mph 16.1 mph N/A   Scattered Clouds
3:53 PM 75.0 °F 44.1 °F 33% 29.93 in 10.0 mi SE 6.9 mph - N/A   Clear
4:53 PM 73.9 °F 46.9 °F 38% 29.92 in 10.0 mi SE 11.5 mph - N/A   Clear
5:53 PM 71.1 °F 46.9 °F 42% 29.93 in 10.0 mi SE 10.4 mph - N/A   Clear
6:53 PM 70.0 °F 46.9 °F 44% 29.94 in 10.0 mi ESE 5.8 mph - N/A   Clear
7:53 PM 66.9 °F 42.1 °F 40% 29.95 in 10.0 mi WNW 10.4 mph - N/A   Clear
8:53 PM 62.1 °F 43.0 °F 50% 29.96 in 10.0 mi NW 5.8 mph - N/A   Clear
9:53 PM 61.0 °F 45.0 °F 56% 29.99 in 10.0 mi NW 15.0 mph - N/A   Clear
10:53 PM 57.9 °F 46.0 °F 65% 30.00 in 10.0 mi NNW 10.4 mph - N/A   Clear
11:53 PM 57.0 °F 46.9 °F 69% 30.01 in 10.0 mi NNW 9.2 mph - N/A   Clear